User: anonymous   Login
Location: Unspecified
(0.0000°N, 0.0000°E)
Time: 07:42:37
(UTC+01:00)
Language:

ATLAS 5 CENTAUR R/B - Orbit

View from above orbital plane
View from above orbital plane
View from above satellite
View from above satellite

Ground track
Ground track

The orbit data is extracted from the following two-line orbital elements,

1 31702U 07027B   14325.18527821 0.00000620  00000-0  26081-3 0    09
2 31702  63.3770  76.6992 0169000 351.5409   8.4591 14.18224105    08
Epoch (UTC): 21 November 2014 04:26:48
Eccentricity: 0.0169000
inclination: 63.3770°
perigee height: 709 km
apogee height: 953 km
right ascension of ascending node: 76.6992°
argument of perigee: 351.5409°
revolutions per day: 14.18224105
mean anomaly at epoch: 8.4591°
orbit number at epoch: 0

The dashed part of the orbit path shows where the satellite is in the earth's shadow,  

DLR